| time (UTC) | temp C | wind direction | speed KPH | gust KPH | rain 1hr cm | rain 24hr cm | rain mn cm | humidity % | barometer mb |
| 20260504214827 | 22 | 221 | 0.0 | 0.0 | 0.00 | 0.00 | 0.00 | 39 | 1002.5 |
| 20260504214318 | 22 | 221 | 0.0 | 1.6 | 0.00 | 0.00 | 0.00 | 36 | 1002.6 |
| 20260504213855 | 22 | 221 | 0.0 | 3.2 | 0.00 | 0.00 | 0.00 | 38 | 1002.5 |
| 20260504213347 | 22 | 221 | 0.0 | 9.7 | 0.00 | 0.00 | 0.00 | 37 | 1002.6 |
| 20260504212841 | 22 | 221 | 1.6 | 9.7 | 0.00 | 0.00 | 0.00 | 36 | 1002.6 |
| 20260504212333 | 22 | 221 | 0.0 | 9.7 | 0.00 | 0.00 | 0.00 | 39 | 1002.6 |
| 20260504211850 | 22 | 221 | 0.0 | 9.7 | 0.00 | 0.00 | 0.00 | 38 | 1002.5 |
| 20260504211322 | 22 | 221 | 0.0 | 0.0 | 0.00 | 0.00 | 0.00 | 38 | 1002.6 |
| 20260504210835 | 22 | 221 | 0.0 | 3.2 | 0.00 | 0.00 | 0.00 | 38 | 1002.8 |
| 20260504210351 | 22 | 221 | 0.0 | 6.4 | 0.00 | 0.00 | 0.00 | 39 | 1002.8 |
| 20260504205823 | 22 | 221 | 0.0 | 1.6 | 0.00 | 0.00 | 0.00 | 39 | 1002.8 |
| 20260504205339 | 22 | 221 | 0.0 | 3.2 | 0.00 | 0.00 | 0.00 | 38 | 1002.8 |
| 20260504204833 | 22 | 221 | 0.0 | 3.2 | 0.00 | 0.00 | 0.00 | 40 | 1002.9 |
| 20260504204328 | 22 | 221 | 0.0 | 1.6 | 0.00 | 0.00 | 0.00 | 39 | 1002.9 |
| 20260504203843 | 22 | 221 | 0.0 | 0.0 | 0.00 | 0.00 | 0.00 | 41 | 1003.0 |
| 20260504203336 | 22 | 221 | 0.0 | 0.0 | 0.00 | 0.00 | 0.00 | 39 | 1003.0 |
| 20260504202830 | 22 | 221 | 0.0 | 3.2 | 0.00 | 0.00 | 0.00 | 40 | 1003.1 |
| 20260504202324 | 22 | 221 | 0.0 | 3.2 | 0.00 | 0.00 | 0.00 | 40 | 1003.1 |
| 20260504201840 | 22 | 221 | 0.0 | 0.0 | 0.00 | 0.00 | 0.00 | 40 | 1003.2 |
| 20260504201333 | 22 | 221 | 0.0 | 1.6 | 0.00 | 0.00 | 0.00 | 39 | 1003.3 |
| 20260504200827 | 22 | 221 | 0.0 | 9.7 | 0.00 | 0.00 | 0.00 | 38 | 1003.3 |
| 20260504200346 | 22 | 221 | 1.6 | 9.7 | 0.00 | 0.00 | 0.00 | 36 | 1003.4 |
| 20260504195841 | 22 | 221 | 0.0 | 1.6 | 0.00 | 0.00 | 0.00 | 41 | 1003.4 |
| 20260504195337 | 22 | 221 | 0.0 | 1.6 | 0.00 | 0.00 | 0.00 | 41 | 1003.5 |
| 20260504194830 | 22 | 221 | 0.0 | 0.0 | 0.00 | 0.00 | 0.00 | 40 | 1003.6 |
| 20260504194323 | 22 | 221 | 0.0 | 1.6 | 0.00 | 0.00 | 0.00 | 39 | 1003.7 |
| 20260504193835 | 22 | 221 | 0.0 | 1.6 | 0.00 | 0.00 | 0.00 | 41 | 1003.7 |
| 20260504193329 | 22 | 221 | 0.0 | 1.6 | 0.00 | 0.00 | 0.00 | 39 | 1003.7 |
| 20260504192823 | 22 | 221 | 0.0 | 1.6 | 0.00 | 0.00 | 0.00 | 41 | 1004.0 |
| 20260504192339 | 22 | 221 | 0.0 | 6.4 | 0.00 | 0.00 | 0.00 | 38 | 1003.9 |
| 20260504191833 | 22 | 221 | 0.0 | 6.4 | 0.00 | 0.00 | 0.00 | 41 | 1004.0 |
| 20260504191327 | 22 | 221 | 0.0 | 9.7 | 0.00 | 0.00 | 0.00 | 39 | 1004.1 |
| 20260504190819 | 22 | 221 | 0.0 | 9.7 | 0.00 | 0.00 | 0.00 | 40 | 1004.1 |
| 20260504190338 | 22 | 221 | 0.0 | 8.0 | 0.00 | 0.00 | 0.00 | 41 | 1004.1 |
| 20260504185832 | 22 | 221 | 0.0 | 0.0 | 0.00 | 0.00 | 0.00 | 42 | 1004.0 |
| 20260504185324 | 22 | 221 | 0.0 | 3.2 | 0.00 | 0.00 | 0.00 | 43 | 1004.2 |
| 20260504184839 | 22 | 221 | 0.0 | 3.2 | 0.00 | 0.00 | 0.00 | 45 | 1004.4 |
| 20260504184330 | 22 | 221 | 0.0 | 8.0 | 0.00 | 0.00 | 0.00 | 42 | 1004.4 |
| 20260504183844 | 22 | 221 | 1.6 | 8.0 | 0.00 | 0.00 | 0.00 | 42 | 1004.5 |
| 20260504183338 | 22 | 221 | 0.0 | 6.4 | 0.00 | 0.00 | 0.00 | 43 | 1004.6 |
| 20260504182832 | 22 | 221 | 1.6 | 8.0 | 0.00 | 0.00 | 0.00 | 43 | 1004.7 |
| 20260504182322 | 21 | 221 | 0.0 | 8.0 | 0.00 | 0.00 | 0.00 | 46 | 1004.6 |
| 20260504181834 | 22 | 221 | 0.0 | 8.0 | 0.00 | 0.00 | 0.00 | 45 | 1004.6 |
| 20260504181326 | 21 | 221 | 0.0 | 8.0 | 0.00 | 0.00 | 0.00 | 46 | 1004.7 |
| 20260504180820 | 21 | 221 | 0.0 | 8.0 | 0.00 | 0.00 | 0.00 | 46 | 1004.7 |
| 20260504180334 | 21 | 221 | 0.0 | 0.0 | 0.00 | 0.00 | 0.00 | 48 | 1004.7 |
| 20260504175828 | 21 | 221 | 0.0 | 3.2 | 0.00 | 0.00 | 0.00 | 51 | 1004.8 |
| 20260504175343 | 21 | 221 | 0.0 | 3.2 | 0.00 | 0.00 | 0.00 | 46 | 1004.8 |
| 20260504174834 | 21 | 221 | 0.0 | 3.2 | 0.00 | 0.00 | 0.00 | 49 | 1004.8 |
| 20260504174350 | 21 | 221 | 0.0 | 11.3 | 0.00 | 0.00 | 0.00 | 50 | 1004.9 |
| 20260504173823 | 21 | 221 | 1.6 | 11.3 | 0.00 | 0.00 | 0.00 | 47 | 1005.0 |
| 20260504173336 | 20 | 221 | 0.0 | 1.6 | 0.00 | 0.00 | 0.00 | 49 | 1005.0 |
| 20260504172829 | 20 | 221 | 0.0 | 1.6 | 0.00 | 0.00 | 0.00 | 48 | 1005.0 |
| 20260504172323 | 20 | 221 | 0.0 | 1.6 | 0.00 | 0.00 | 0.00 | 50 | 1005.0 |
| 20260504171834 | 20 | 221 | 0.0 | 1.6 | 0.00 | 0.00 | 0.00 | 48 | 1005.0 |
| 20260504171328 | 20 | 221 | 0.0 | 0.0 | 0.00 | 0.00 | 0.00 | 50 | 1005.0 |
| 20260504170843 | 20 | 221 | 0.0 | 0.0 | 0.00 | 0.00 | 0.00 | 52 | 1005.1 |
| 20260504170333 | 20 | 221 | 0.0 | 0.0 | 0.00 | 0.00 | 0.00 | 52 | 1005.1 |
| 20260504160329 | 18 | 221 | 0.0 | 3.2 | 0.00 | 0.00 | 0.00 | 53 | 1005.7 |
| 20260504150837 | 16 | 221 | 0.0 | 1.6 | 0.00 | 0.00 | 0.00 | 55 | 1006.1 |
| 20260504150349 | 16 | 221 | 0.0 | 0.0 | 0.00 | 0.00 | 0.00 | 54 | 1006.1 |
| 20260504141325 | 15 | 221 | 0.0 | 8.0 | 0.00 | 0.00 | 0.00 | 56 | 1006.1 |
| 20260504140834 | 15 | 221 | 0.0 | 8.0 | 0.00 | 0.00 | 0.00 | 56 | 1006.1 |
| 20260504140325 | 15 | 221 | 0.0 | 1.6 | 0.00 | 0.00 | 0.00 | 57 | 1006.1 |
| 20260504130334 | 13 | 221 | 0.0 | 0.0 | 0.00 | 0.00 | 0.00 | 58 | 1006.8 |
| 20260504110330 | 10 | 221 | 0.0 | 0.0 | 0.00 | 0.00 | 0.00 | 62 | 1006.8 |
| 20260504100336 | 10 | 221 | 0.0 | 0.0 | 0.00 | 0.00 | 0.00 | 61 | 1006.7 |
| 20260504081835 | 10 | 221 | 0.0 | 0.0 | 0.00 | 0.00 | 0.00 | 64 | 1007.2 |
| 20260504081330 | 9 | 221 | 0.0 | 0.0 | 0.00 | 0.00 | 0.00 | 64 | 1007.2 |
| 20260504080823 | 9 | 221 | 0.0 | 0.0 | 0.00 | 0.00 | 0.00 | 64 | 1007.3 |
| 20260504080337 | 9 | 221 | 0.0 | 0.0 | 0.00 | 0.00 | 0.00 | 64 | 1007.3 |
| 20260504070331 | 9 | 221 | 0.0 | 0.0 | 0.00 | 0.00 | 0.00 | 64 | 1007.8 |
| 20260504050329 | 11 | 221 | 0.0 | 0.0 | 0.00 | 0.00 | 0.00 | 62 | 1008.4 |
| 20260504045822 | 11 | 221 | 0.0 | 0.0 | 0.00 | 0.00 | 0.00 | 61 | 1008.4 |
| 20260504045356 | 11 | 221 | 0.0 | 0.0 | 0.00 | 0.00 | 0.00 | 59 | 1008.5 |
| 20260504044827 | 11 | 221 | 0.0 | 0.0 | 0.00 | 0.00 | 0.00 | 61 | 1008.5 |
| 20260504044339 | 11 | 221 | 0.0 | 0.0 | 0.00 | 0.00 | 0.00 | 60 | 1008.4 |
| 20260504043830 | 11 | 221 | 0.0 | 0.0 | 0.00 | 0.00 | 0.00 | 59 | 1008.5 |
| 20260504043323 | 11 | 221 | 0.0 | 0.0 | 0.00 | 0.00 | 0.00 | 58 | 1008.5 |
| 20260504042859 | 11 | 221 | 0.0 | 0.0 | 0.00 | 0.00 | 0.00 | 58 | 1008.5 |
| 20260504042331 | 11 | 221 | 0.0 | 0.0 | 0.00 | 0.00 | 0.00 | 59 | 1008.5 |
| 20260504041825 | 11 | 221 | 0.0 | 0.0 | 0.00 | 0.00 | 0.00 | 58 | 1008.5 |
| 20260504041319 | 11 | 221 | 0.0 | 0.0 | 0.00 | 0.00 | 0.00 | 58 | 1008.4 |
| 20260504040836 | 11 | 221 | 0.0 | 0.0 | 0.00 | 0.00 | 0.00 | 57 | 1008.5 |
| 20260504040329 | 11 | 221 | 0.0 | 0.0 | 0.00 | 0.00 | 0.00 | 57 | 1008.4 |
| 20260504035823 | 12 | 221 | 0.0 | 0.0 | 0.00 | 0.00 | 0.00 | 57 | 1008.5 |
| 20260504035339 | 12 | 221 | 0.0 | 0.0 | 0.00 | 0.00 | 0.00 | 58 | 1008.4 |
| 20260504034851 | 12 | 221 | 0.0 | 0.0 | 0.00 | 0.00 | 0.00 | 57 | 1008.4 |
| 20260504034323 | 12 | 221 | 0.0 | 0.0 | 0.00 | 0.00 | 0.00 | 57 | 1008.4 |
| 20260504033839 | 12 | 221 | 0.0 | 0.0 | 0.00 | 0.00 | 0.00 | 57 | 1008.5 |
| 20260504033335 | 12 | 221 | 0.0 | 0.0 | 0.00 | 0.00 | 0.00 | 57 | 1008.4 |
| 20260504032828 | 12 | 221 | 0.0 | 0.0 | 0.00 | 0.00 | 0.00 | 56 | 1008.4 |
| 20260504032324 | 12 | 221 | 0.0 | 0.0 | 0.00 | 0.00 | 0.00 | 57 | 1008.5 |
| 20260504031834 | 12 | 221 | 0.0 | 0.0 | 0.00 | 0.00 | 0.00 | 56 | 1008.5 |
| 20260504031328 | 11 | 221 | 0.0 | 0.0 | 0.00 | 0.00 | 0.00 | 57 | 1008.4 |
| 20260504030843 | 11 | 221 | 0.0 | 0.0 | 0.00 | 0.00 | 0.00 | 58 | 1008.5 |
| 20260504030335 | 11 | 221 | 0.0 | 0.0 | 0.00 | 0.00 | 0.00 | 58 | 1008.5 |
| 20260504025832 | 11 | 221 | 0.0 | 0.0 | 0.00 | 0.00 | 0.00 | 59 | 1008.5 |
| 20260504025327 | 11 | 221 | 0.0 | 0.0 | 0.00 | 0.00 | 0.00 | 59 | 1008.6 |
| 20260504024820 | 11 | 221 | 0.0 | 0.0 | 0.00 | 0.00 | 0.00 | 61 | 1008.6 |
| 20260504024337 | 11 | 221 | 0.0 | 0.0 | 0.00 | 0.00 | 0.00 | 58 | 1008.7 |
| 20260504023830 | 11 | 221 | 0.0 | 0.0 | 0.00 | 0.00 | 0.00 | 58 | 1008.8 |
| 20260504023323 | 11 | 221 | 0.0 | 0.0 | 0.00 | 0.00 | 0.00 | 58 | 1008.8 |
| 20260504022839 | 11 | 221 | 0.0 | 0.0 | 0.00 | 0.00 | 0.00 | 57 | 1008.8 |
| 20260504022330 | 11 | 221 | 0.0 | 0.0 | 0.00 | 0.00 | 0.00 | 59 | 1008.9 |
| 20260504021823 | 12 | 221 | 0.0 | 0.0 | 0.00 | 0.00 | 0.00 | 59 | 1008.9 |
| 20260504021335 | 12 | 221 | 0.0 | 0.0 | 0.00 | 0.00 | 0.00 | 58 | 1008.9 |
| 20260504020826 | 12 | 221 | 0.0 | 0.0 | 0.00 | 0.00 | 0.00 | 57 | 1008.9 |
| 20260504020337 | 12 | 221 | 0.0 | 0.0 | 0.00 | 0.00 | 0.00 | 57 | 1008.8 |
| 20260504015830 | 12 | 221 | 0.0 | 0.0 | 0.00 | 0.00 | 0.00 | 56 | 1008.8 |
| 20260504015321 | 12 | 221 | 0.0 | 0.0 | 0.00 | 0.00 | 0.00 | 58 | 1008.8 |
| 20260504014831 | 11 | 221 | 0.0 | 1.6 | 0.00 | 0.00 | 0.00 | 58 | 1008.7 |
| 20260504014322 | 11 | 221 | 0.0 | 1.6 | 0.00 | 0.00 | 0.00 | 59 | 1008.7 |
| 20260504013841 | 11 | 221 | 0.0 | 3.2 | 0.00 | 0.00 | 0.00 | 60 | 1008.7 |
| 20260504013357 | 11 | 221 | 0.0 | 3.2 | 0.00 | 0.00 | 0.00 | 61 | 1008.8 |
| 20260504012829 | 11 | 221 | 0.0 | 0.0 | 0.00 | 0.00 | 0.00 | 62 | 1008.8 |
| 20260504012323 | 11 | 221 | 0.0 | 0.0 | 0.00 | 0.00 | 0.00 | 64 | 1009.0 |
| 20260504011836 | 11 | 221 | 0.0 | 0.0 | 0.00 | 0.00 | 0.00 | 64 | 1009.1 |
| 20260504011330 | 11 | 221 | 0.0 | 0.0 | 0.00 | 0.00 | 0.00 | 62 | 1009.2 |
| 20260504010823 | 11 | 221 | 0.0 | 11.3 | 0.00 | 0.00 | 0.00 | 63 | 1009.3 |
| 20260504010339 | 11 | 221 | 1.6 | 11.3 | 0.00 | 0.00 | 0.00 | 64 | 1009.1 |
| 20260504005832 | 11 | 221 | 0.0 | 1.6 | 0.00 | 0.00 | 0.00 | 66 | 1009.0 |
| 20260504005326 | 11 | 221 | 0.0 | 0.0 | 0.00 | 0.00 | 0.00 | 68 | 1009.0 |
| 20260504004823 | 11 | 221 | 0.0 | 8.0 | 0.00 | 0.00 | 0.00 | 68 | 1009.0 |
| 20260504004337 | 11 | 221 | 0.0 | 8.0 | 0.00 | 0.00 | 0.00 | 68 | 1009.1 |
| 20260504003831 | 11 | 221 | 0.0 | 6.4 | 0.00 | 0.00 | 0.00 | 68 | 1009.4 |
| 20260504003325 | 11 | 221 | 0.0 | 4.8 | 0.00 | 0.00 | 0.00 | 67 | 1009.5 |
| 20260504002838 | 11 | 221 | 0.0 | 9.7 | 0.00 | 0.00 | 0.00 | 66 | 1009.5 |
| 20260504002332 | 11 | 221 | 1.6 | 9.7 | 0.00 | 0.00 | 0.00 | 66 | 1009.5 |
| 20260504001825 | 11 | 221 | 0.0 | 12.9 | 0.00 | 0.00 | 0.00 | 65 | 1009.4 |
| 20260504001321 | 11 | 221 | 0.0 | 11.3 | 0.00 | 0.00 | 0.00 | 63 | 1009.4 |
| 20260504000835 | 11 | 221 | 3.2 | 11.3 | 0.00 | 0.00 | 0.00 | 62 | 1009.4 |
| 20260504000328 | 11 | 221 | 1.6 | 11.3 | 0.00 | 0.00 | 0.00 | 61 | 1009.3 |
| 20260503235823 | 11 | 221 | 0.0 | 19.3 | 0.00 | 0.00 | 0.00 | 60 | 1009.2 |
| 20260503235333 | 12 | 221 | 1.6 | 19.3 | 0.00 | 0.00 | 0.00 | 59 | 1009.1 |
| 20260503234825 | 12 | 221 | 3.2 | 16.1 | 0.00 | 0.00 | 0.00 | 59 | 1009.1 |
| 20260503234319 | 12 | 221 | 0.0 | 17.7 | 0.00 | 0.00 | 0.00 | 57 | 1009.2 |
| 20260503233835 | 12 | 221 | 3.2 | 19.3 | 0.00 | 0.00 | 0.00 | 56 | 1009.2 |
| 20260503233329 | 12 | 220 | 8.0 | 19.3 | 0.00 | 0.00 | 0.00 | 55 | 1009.3 |
| 20260503232848 | 12 | 219 | 0.0 | 17.7 | 0.00 | 0.00 | 0.00 | 53 | 1009.1 |
| 20260503232322 | 12 | 219 | 1.6 | 17.7 | 0.00 | 0.00 | 0.00 | 52 | 1009.1 |
| 20260503231834 | 13 | 218 | 0.0 | 11.3 | 0.00 | 0.00 | 0.00 | 51 | 1009.0 |
| 20260503231328 | 13 | 218 | 1.6 | 8.0 | 0.00 | 0.00 | 0.00 | 51 | 1008.8 |
| 20260503230825 | 13 | 218 | 0.0 | 6.4 | 0.00 | 0.00 | 0.00 | 49 | 1008.8 |
| 20260503230338 | 13 | 218 | 1.6 | 16.1 | 0.00 | 0.00 | 0.00 | 49 | 1008.7 |
| 20260503225831 | 13 | 218 | 0.0 | 17.7 | 0.00 | 0.00 | 0.00 | 48 | 1008.6 |
| 20260503225325 | 13 | 217 | 1.6 | 12.9 | 0.00 | 0.00 | 0.00 | 48 | 1008.5 |
| 20260503224819 | 13 | 217 | 0.0 | 8.0 | 0.00 | 0.00 | 0.00 | 47 | 1008.6 |
| 20260503224335 | 13 | 217 | 0.0 | 8.0 | 0.00 | 0.00 | 0.00 | 46 | 1008.6 |
| 20260503223829 | 13 | 217 | 0.0 | 6.4 | 0.00 | 0.00 | 0.00 | 46 | 1008.6 |
| 20260503223345 | 13 | 217 | 0.0 | 6.4 | 0.00 | 0.00 | 0.00 | 47 | 1008.5 |
| 20260503222838 | 13 | 217 | 0.0 | 0.0 | 0.00 | 0.00 | 0.00 | 48 | 1008.4 |
| 20260503222332 | 13 | 217 | 0.0 | 3.2 | 0.00 | 0.00 | 0.00 | 48 | 1008.4 |
| 20260503221828 | 13 | 217 | 0.0 | 6.4 | 0.00 | 0.00 | 0.00 | 46 | 1008.5 |
| 20260503221337 | 13 | 217 | 0.0 | 6.4 | 0.00 | 0.00 | 0.00 | 47 | 1008.5 |
| 20260503220829 | 13 | 217 | 0.0 | 9.7 | 0.00 | 0.00 | 0.00 | 47 | 1008.8 |
| 20260503220323 | 13 | 217 | 0.0 | 9.7 | 0.00 | 0.00 | 0.00 | 46 | 1008.7 |
| 20260503215838 | 13 | 217 | 0.0 | 12.9 | 0.00 | 0.00 | 0.00 | 46 | 1008.8 |
| 20260503215330 | 13 | 217 | 4.8 | 12.9 | 0.00 | 0.00 | 0.00 | 45 | 1008.9 |